| time (UTC) | temp C | wind direction | speed KPH | gust KPH | rain 1hr cm | rain 24hr cm | rain mn cm | humidity % | barometer mb |
| 20260507184541 | 13 | 209 | 1.6 | 19.3 | 0.00 | 0.00 | 0.00 | 56 | 1011.3 |
| 20260507183045 | 13 | 273 | 4.8 | 16.1 | 0.00 | 0.00 | 0.00 | 55 | 1011.4 |
| 20260507181544 | 13 | 245 | 4.8 | 16.1 | 0.00 | 0.00 | 0.00 | 52 | 1011.3 |
| 20260507180045 | 15 | 277 | 4.8 | 17.7 | 0.00 | 0.00 | 0.00 | 53 | 1011.5 |
| 20260507174540 | 15 | 234 | 8.0 | 20.9 | 0.00 | 0.00 | 0.00 | 54 | 1011.7 |
| 20260507173043 | 14 | 325 | 6.4 | 20.9 | 0.00 | 0.00 | 0.00 | 57 | 1011.9 |
| 20260507171544 | 14 | 244 | 8.0 | 20.9 | 0.00 | 0.00 | 0.00 | 55 | 1012.0 |
| 20260507170042 | 13 | 314 | 6.4 | 16.1 | 0.00 | 0.00 | 0.00 | 57 | 1012.2 |
| 20260507164539 | 12 | 294 | 4.8 | 22.5 | 0.00 | 0.00 | 0.00 | 58 | 1012.4 |
| 20260507163046 | 13 | 308 | 4.8 | 17.7 | 0.00 | 0.00 | 0.00 | 56 | 1012.5 |
| 20260507161545 | 13 | 209 | 4.8 | 16.1 | 0.00 | 0.00 | 0.00 | 64 | 1012.7 |
| 20260507160045 | 13 | 310 | 6.4 | 19.3 | 0.00 | 0.00 | 0.00 | 54 | 1012.8 |
| 20260507154544 | 13 | 273 | 8.0 | 17.7 | 0.00 | 0.03 | 0.00 | 58 | 1012.9 |
| 20260507153041 | 12 | 267 | 6.4 | 14.5 | 0.00 | 0.03 | 0.00 | 60 | 1013.0 |
| 20260507151547 | 12 | 245 | 8.0 | 20.9 | 0.00 | 0.03 | 0.00 | 58 | 1013.2 |
| 20260507150045 | 12 | 292 | 6.4 | 14.5 | 0.00 | 0.03 | 0.00 | 61 | 1013.5 |
| 20260507144545 | 12 | 282 | 4.8 | 16.1 | 0.00 | 0.08 | 0.00 | 62 | 1013.8 |
| 20260507143043 | 11 | 0 | 1.6 | 11.3 | 0.00 | 0.08 | 0.00 | 66 | 1013.9 |
| 20260507141543 | 11 | 202 | 1.6 | 12.9 | 0.00 | 0.08 | 0.00 | 70 | 1014.0 |
| 20260507140101 | 10 | 0 | 1.6 | 8.0 | 0.00 | 0.08 | 0.00 | 69 | 1014.2 |
| 20260507134546 | 10 | 290 | 3.2 | 9.7 | 0.00 | 0.08 | 0.00 | 66 | 1014.3 |
| 20260507133046 | 10 | 0 | 3.2 | 9.7 | 0.00 | 0.08 | 0.00 | 66 | 1014.3 |
| 20260507131547 | 10 | 290 | 1.6 | 6.4 | 0.00 | 0.08 | 0.00 | 72 | 1014.2 |
| 20260507130045 | 9 | 317 | 1.6 | 8.0 | 0.00 | 0.08 | 0.00 | 71 | 1014.2 |
| 20260507124543 | 8 | 0 | 0.0 | 6.4 | 0.00 | 0.10 | 0.00 | 73 | 1014.4 |
| 20260507123039 | 8 | 0 | 0.0 | 4.8 | 0.00 | 0.10 | 0.00 | 75 | 1014.4 |
| 20260507121545 | 7 | 0 | 0.0 | 0.0 | 0.00 | 0.10 | 0.00 | 83 | 1014.4 |
| 20260507120046 | 7 | 0 | 0.0 | 0.0 | 0.00 | 0.10 | 0.00 | 84 | 1014.4 |
| 20260507114542 | 5 | 0 | 0.0 | 0.0 | 0.00 | 0.30 | 0.00 | 86 | 1014.3 |
| 20260507113042 | 4 | 0 | 0.0 | 0.0 | 0.00 | 0.30 | 0.00 | 88 | 1014.3 |
| 20260507111545 | 3 | 0 | 0.0 | 0.0 | 0.00 | 0.30 | 0.00 | 89 | 1014.1 |
| 20260507110039 | 2 | 0 | 0.0 | 0.0 | 0.00 | 0.30 | 0.00 | 91 | 1014.0 |
| 20260507104546 | 1 | 0 | 0.0 | 0.0 | 0.00 | 0.71 | 0.00 | 91 | 1013.8 |
| 20260507103043 | 1 | 0 | 0.0 | 0.0 | 0.00 | 0.71 | 0.00 | 88 | 1013.8 |
| 20260507101558 | 2 | 0 | 0.0 | 0.0 | 0.00 | 0.71 | 0.00 | 87 | 1013.8 |
| 20260507100103 | 2 | 0 | 0.0 | 0.0 | 0.00 | 0.71 | 0.00 | 87 | 1013.8 |
| 20260507094546 | 2 | 0 | 0.0 | 0.0 | 0.00 | 0.99 | 0.00 | 87 | 1013.8 |
| 20260507093038 | 2 | 0 | 0.0 | 0.0 | 0.00 | 0.99 | 0.00 | 88 | 1013.7 |
| 20260507091558 | 2 | 0 | 0.0 | 0.0 | 0.00 | 0.99 | 0.00 | 86 | 1014.0 |
| 20260507090105 | 3 | 0 | 0.0 | 0.0 | 0.00 | 0.99 | 0.00 | 84 | 1013.8 |
| 20260507084541 | 3 | 0 | 0.0 | 0.0 | 0.00 | 0.99 | 0.00 | 84 | 1013.8 |
| 20260507083041 | 3 | 0 | 0.0 | 0.0 | 0.00 | 0.99 | 0.00 | 83 | 1013.8 |
| 20260507081550 | 3 | 0 | 0.0 | 0.0 | 0.00 | 0.99 | 0.00 | 82 | 1013.9 |
| 20260507080043 | 3 | 0 | 0.0 | 0.0 | 0.00 | 0.99 | 0.00 | 82 | 1013.8 |
| 20260507074544 | 4 | 0 | 0.0 | 0.0 | 0.00 | 1.09 | 0.00 | 81 | 1014.0 |
| 20260507073054 | 5 | 0 | 0.0 | 0.0 | 0.00 | 1.09 | 0.00 | 78 | 1013.9 |
| 20260507071539 | 5 | 0 | 0.0 | 0.0 | 0.00 | 1.09 | 0.00 | 78 | 1013.9 |
| 20260507070100 | 5 | 0 | 0.0 | 0.0 | 0.00 | 1.09 | 0.00 | 78 | 1013.9 |
| 20260507064549 | 5 | 0 | 0.0 | 0.0 | 0.00 | 1.24 | 0.00 | 73 | 1014.0 |
| 20260507063041 | 6 | 0 | 0.0 | 0.0 | 0.00 | 1.24 | 0.00 | 73 | 1014.0 |
| 20260507061542 | 6 | 0 | 0.0 | 0.0 | 0.00 | 1.24 | 0.00 | 75 | 1014.0 |
| 20260507060040 | 6 | 0 | 0.0 | 4.8 | 0.00 | 1.24 | 0.00 | 74 | 1014.2 |
| 20260507054543 | 6 | 228 | 3.2 | 9.7 | 0.00 | 1.30 | 0.00 | 75 | 1014.4 |
| 20260507053044 | 6 | 273 | 1.6 | 9.7 | 0.00 | 1.30 | 0.00 | 75 | 1014.5 |
| 20260507051545 | 6 | 259 | 1.6 | 6.4 | 0.00 | 1.30 | 0.00 | 75 | 1014.7 |
| 20260507050043 | 6 | 266 | 3.2 | 6.4 | 0.00 | 1.30 | 0.00 | 75 | 1014.6 |
| 20260507044547 | 6 | 266 | 1.6 | 6.4 | 0.00 | 1.30 | 0.00 | 73 | 1014.7 |
| 20260507043041 | 6 | 266 | 3.2 | 8.0 | 0.00 | 1.30 | 0.00 | 72 | 1014.6 |
| 20260507041547 | 7 | 272 | 3.2 | 6.4 | 0.00 | 1.30 | 0.00 | 74 | 1014.5 |
| 20260507040050 | 7 | 252 | 1.6 | 6.4 | 0.00 | 1.30 | 0.00 | 72 | 1014.6 |
| 20260507034546 | 7 | 0 | 0.0 | 0.0 | 0.00 | 1.30 | 1.30 | 71 | 1014.3 |
| 20260507033044 | 7 | 0 | 0.0 | 0.0 | 0.00 | 1.30 | 1.30 | 70 | 1014.2 |
| 20260507031544 | 7 | 0 | 0.0 | 4.8 | 0.00 | 1.30 | 1.30 | 68 | 1014.3 |
| 20260507030043 | 7 | 261 | 1.6 | 4.8 | 0.00 | 1.30 | 1.30 | 69 | 1014.0 |
| 20260507024545 | 7 | 252 | 3.2 | 6.4 | 0.00 | 1.30 | 1.30 | 70 | 1014.0 |
| 20260507023043 | 7 | 163 | 1.6 | 9.7 | 0.00 | 1.30 | 1.30 | 68 | 1013.9 |
| 20260507021542 | 8 | 0 | 0.0 | 6.4 | 0.00 | 1.30 | 1.30 | 68 | 1013.5 |
| 20260507020050 | 8 | 360 | 3.2 | 6.4 | 0.00 | 1.30 | 1.30 | 70 | 1013.6 |
| 20260507014557 | 8 | 0 | 0.0 | 4.8 | 0.00 | 1.30 | 1.30 | 72 | 1013.5 |
| 20260507013039 | 8 | 202 | 3.2 | 6.4 | 0.00 | 1.30 | 1.30 | 71 | 1013.7 |
| 20260507011539 | 8 | 269 | 3.2 | 12.9 | 0.00 | 1.30 | 1.30 | 73 | 1014.0 |
| 20260507010059 | 8 | 259 | 3.2 | 9.7 | 0.00 | 1.30 | 1.30 | 73 | 1014.1 |
| 20260507004544 | 8 | 243 | 4.8 | 14.5 | 0.00 | 1.30 | 1.30 | 71 | 1013.9 |
| 20260507003046 | 8 | 311 | 3.2 | 14.5 | 0.00 | 1.30 | 1.30 | 71 | 1013.9 |
| 20260507001550 | 9 | 267 | 6.4 | 12.9 | 0.00 | 1.30 | 1.30 | 74 | 1013.7 |
| 20260507000042 | 9 | 263 | 3.2 | 11.3 | 0.00 | 1.30 | 1.30 | 78 | 1013.5 |
| 20260506234546 | 9 | 271 | 1.6 | 4.8 | 0.00 | 1.30 | 1.30 | 82 | 1013.2 |
| 20260506233047 | 10 | 267 | 1.6 | 11.3 | 0.00 | 1.30 | 1.30 | 82 | 1013.0 |
| 20260506231545 | 10 | 282 | 0.0 | 6.4 | 0.00 | 1.30 | 1.30 | 82 | 1012.7 |
| 20260506230040 | 10 | 291 | 3.2 | 9.7 | 0.00 | 1.30 | 1.30 | 81 | 1012.5 |
| 20260506224544 | 10 | 292 | 3.2 | 9.7 | 0.00 | 1.30 | 1.30 | 81 | 1012.5 |
| 20260506223046 | 10 | 290 | 4.8 | 11.3 | 0.00 | 1.30 | 1.30 | 81 | 1012.4 |
| 20260506221548 | 10 | 266 | 6.4 | 12.9 | 0.00 | 1.30 | 1.30 | 81 | 1012.3 |
| 20260506220044 | 10 | 273 | 3.2 | 14.5 | 0.00 | 1.30 | 1.30 | 81 | 1012.2 |
| 20260506214546 | 10 | 296 | 4.8 | 11.3 | 0.00 | 1.30 | 1.30 | 83 | 1012.2 |
| 20260506213039 | 10 | 255 | 3.2 | 12.9 | 0.00 | 1.30 | 1.30 | 83 | 1011.7 |
| 20260506211540 | 10 | 257 | 3.2 | 11.3 | 0.00 | 1.30 | 1.30 | 85 | 1011.4 |
| 20260506210049 | 10 | 254 | 4.8 | 11.3 | 0.00 | 1.30 | 1.30 | 84 | 1011.6 |
| 20260506204542 | 10 | 310 | 1.6 | 14.5 | 0.00 | 1.30 | 1.30 | 85 | 1011.3 |
| 20260506203051 | 10 | 286 | 3.2 | 14.5 | 0.00 | 1.30 | 1.30 | 87 | 1011.3 |
| 20260506201555 | 10 | 305 | 4.8 | 16.1 | 0.00 | 1.30 | 1.30 | 86 | 1011.3 |
| 20260506200046 | 10 | 281 | 4.8 | 12.9 | 0.00 | 1.30 | 1.30 | 86 | 1011.2 |
| 20260506194551 | 10 | 280 | 4.8 | 17.7 | 0.00 | 1.30 | 1.30 | 86 | 1011.1 |
| 20260506193045 | 11 | 290 | 3.2 | 16.1 | 0.00 | 1.30 | 1.30 | 88 | 1011.1 |
| 20260506191543 | 11 | 267 | 4.8 | 14.5 | 0.00 | 1.30 | 1.30 | 88 | 1010.8 |
| 20260506190041 | 11 | 304 | 4.8 | 14.5 | 0.00 | 1.30 | 1.30 | 88 | 1010.6 |